Weather Roundup
Issued by NWS Chicago, IL

Home | Current Version | Previous Version | Graphics & Text | Print | Product List | Glossary On
Versions: 1 2 3 4 5 6 7 8 9 10 11 12 13 14 15 16 17 18 19 20 21 22 23 24 25 26 27 28 29 30 31 32 33 34 35 36 37 38 39 40 41 42 43 44 45 46 47 48 49 50
000
NZUS59 KLOT 121103
HRRLOT

CHICAGO AREA WEATHER ROUNDUP
NATIONAL WEATHER SERVICE CHICAGO/ROMEOVILLE IL
500 AM CST TUE DEC 12 2017

NOTE: "FAIR" INDICATES FEW OR NO CLOUDS BELOW 12,000 FEET WITH NO
SIGNIFICANT WEATHER AND/OR OBSTRUCTIONS TO VISIBILITY.

* THESE STATIONS ARE NOT UNDER NWS QUALITY CONTROL. THEY ALSO MAY NOT
  REPORT WEATHER SUCH AS PRECIPITATION OR FOG.

ILZ005-006-012>014-019>023-121200-
NORTHEAST ILLINOIS

CITY           SKY/WX    TMP DP  RH WIND       PRES   REMARKS
OHARE          PTCLDY    20   8  60 NW18G24   30.03R WCI   5
MIDWAY         PTCLDY    21  11  65 NW18G25   30.03R WCI   6
AURORA         CLOUDY    17  10  74 NW10      30.06R WCI   5
LANSING*       MOCLDY    22  12  66 NW16G23   30.02R WCI   8
WAUKEGAN       CLOUDY    20  11  68 NW13G18   30.02R WCI   7
DUPAGE AIRPORT CLEAR     18  10  71 NW15      30.04R WCI   4
WHEELING       PTCLDY    20   9  62 NW13      30.04R WCI   7
LEWIS AIRPORT* CLEAR     19  11  68 N18       30.04S WCI   4
NORTHERLY ISL    N/A     22  11  62 W15         N/A  WCI   9
$$

WIZ051-052-058>065-066-070>072-121200-
SOUTHEAST WISCONSIN

CITY           SKY/WX    TMP DP  RH WIND       PRES   REMARKS
MILWAUKEE      MOCLDY    20   6  55 NW17G30   30.01R WCI   5
KENOSHA*       CLOUDY    20   9  62 NW14G25   30.02R WCI   7
RACINE*        CLOUDY    20   6  55 N16G26    30.03R WCI   6
$$

INZ001>003-010>013-019-020-121200-
NORTHWEST INDIANA

CITY           SKY/WX    TMP DP  RH WIND       PRES   REMARKS
GARY*          CLOUDY    25  10  54 NW17G35   30.02R WCI  11
MICHIGAN CITY* NOT AVBL
RENSSELAER*    NOT AVBL
VALPARAISO     CLOUDY    26  13  57 N17G25    29.96R WCI  13
$$

LMZ740>746-121200-
SOUTHERN LAKE MICHIGAN

STATION/POSITION TIME  SKY/WX   TEMP WIND        PRES    VSBY
                                AIR  DIR/SP/G
                 (UTC)          (F)  (DEG/KT/KT) (MB)    (MI)
HARRISON CRIB    1040            23  320/ 26/ 31   N/A
BURNHAM HARBOR   1100            22  330/ 10/ 23   N/A
CALUMET HARBOR   1030            22  290/ 16/ 23 1015.6R
BURNS HARBOR     1040            27  340/ 20/ 30 1015.2R
MICHIGAN CITY    1040            26  340/ 32/ 39   N/A
$$

ABBREVIATIONS USED IN REMARKS
   TC - TEMPERATURE IN CELSIUS
  WCI - WIND CHILL INDEX
   HX - HEAT INDEX
  VSB - VISIBILITY
$$




USA.gov is the U.S. government's official web portal to all federal, state and local government web resources and services.